Wetterdaten: Montag, 06.06.2016
Datum Zeit Auen-Temp. Temp gefhlt Luftfeuchte Luftdruck Regen Wind Richtung Richtung Sonnenschein Taupunkt Windben
06.06.2016 00:00 10,8 C 10,6 C 87 % 1019,2 hPa 0,0 mm 0,0 km/h (0 Bft) SW 225 0 min 8,7 C 0,0 km/h (0 Bft)
06.06.2016 00:05 10,8 C 10,6 C 87 % 1019,2 hPa 0,0 mm 0,0 km/h (0 Bft) S 180 0 min 8,7 C 0,0 km/h (0 Bft)
06.06.2016 00:10 10,8 C 10,5 C 87 % 1018,9 hPa 0,0 mm 0,0 km/h (0 Bft) S 180 0 min 8,7 C 0,0 km/h (0 Bft)
06.06.2016 00:15 10,8 C 10,6 C 87 % 1018,9 hPa 0,0 mm 0,0 km/h (0 Bft) S-SW 202 0 min 8,7 C 0,0 km/h (0 Bft)
06.06.2016 00:20 10,8 C 10,6 C 87 % 1018,9 hPa 0,0 mm 0,0 km/h (0 Bft) S-SO 157 0 min 8,7 C 0,0 km/h (0 Bft)
06.06.2016 00:25 10,7 C 10,5 C 87 % 1018,9 hPa 0,0 mm 0,0 km/h (0 Bft) S-SO 157 0 min 8,6 C 0,0 km/h (0 Bft)
06.06.2016 00:30 10,6 C 10,3 C 87 % 1019,1 hPa 0,0 mm 0,0 km/h (0 Bft) S 180 0 min 8,5 C 0,0 km/h (0 Bft)
06.06.2016 00:35 10,6 C 10,3 C 87 % 1019,1 hPa 0,0 mm 0,0 km/h (0 Bft) SW 225 0 min 8,5 C 0,0 km/h (0 Bft)
06.06.2016 00:40 10,5 C 10,2 C 87 % 1019,1 hPa 0,0 mm 0,0 km/h (0 Bft) SW 225 0 min 8,4 C 0,0 km/h (0 Bft)
06.06.2016 00:45 10,5 C 10,1 C 87 % 1019,1 hPa 0,0 mm 0,0 km/h (0 Bft) S 180 0 min 8,4 C 0,0 km/h (0 Bft)
06.06.2016 00:50 10,4 C 10,1 C 87 % 1019,1 hPa 0,0 mm 0,0 km/h (0 Bft) S 180 0 min 8,3 C 0,0 km/h (0 Bft)
06.06.2016 00:55 10,4 C 10,3 C 87 % 1019,1 hPa 0,0 mm 0,0 km/h (0 Bft) SW 225 0 min 8,3 C 0,0 km/h (0 Bft)
06.06.2016 01:00 10,5 C 10,2 C 87 % 1019,1 hPa 0,0 mm 0,0 km/h (0 Bft) S 180 0 min 8,4 C 0,0 km/h (0 Bft)
06.06.2016 01:05 10,4 C 10,1 C 87 % 1019,1 hPa 0,0 mm 0,0 km/h (0 Bft) S 180 0 min 8,3 C 0,0 km/h (0 Bft)
06.06.2016 01:10 10,3 C 10,0 C 87 % 1019,1 hPa 0,0 mm 0,0 km/h (0 Bft) S 180 0 min 8,2 C 0,0 km/h (0 Bft)
06.06.2016 01:15 10,2 C 9,9 C 87 % 1019,1 hPa 0,0 mm 0,0 km/h (0 Bft) S 180 0 min 8,1 C 0,0 km/h (0 Bft)
06.06.2016 01:20 10,2 C 10,0 C 87 % 1019,1 hPa 0,0 mm 0,0 km/h (0 Bft) S 180 0 min 8,1 C 0,0 km/h (0 Bft)
06.06.2016 01:25 10,2 C 10,0 C 87 % 1019,1 hPa 0,0 mm 0,0 km/h (0 Bft) SW 225 0 min 8,1 C 0,0 km/h (0 Bft)
06.06.2016 01:30 10,2 C 10,0 C 87 % 1019,2 hPa 0,0 mm 0,0 km/h (0 Bft) S 180 0 min 8,1 C 0,0 km/h (0 Bft)
06.06.2016 01:35 10,1 C 9,9 C 87 % 1019,2 hPa 0,0 mm 0,0 km/h (0 Bft) S-SW 202 0 min 8,0 C 0,0 km/h (0 Bft)
06.06.2016 01:40 10,1 C 10,0 C 87 % 1019,2 hPa 0,0 mm 0,0 km/h (0 Bft) S 180 0 min 8,0 C 0,0 km/h (0 Bft)
06.06.2016 01:42 10,1 C 10,0 C 87 % 1019,2 hPa 0,0 mm 0,0 km/h (0 Bft) S 180 0 min 8,0 C 0,0 km/h (0 Bft)
06.06.2016 01:45 10,1 C 10,0 C 87 % 1019,2 hPa 0,0 mm 0,0 km/h (0 Bft) S-SW 202 0 min 8,0 C 0,0 km/h (0 Bft)
06.06.2016 01:50 10,1 C 9,8 C 87 % 1018,7 hPa 0,0 mm 0,0 km/h (0 Bft) S 180 0 min 8,0 C 0,0 km/h (0 Bft)
06.06.2016 01:55 10,0 C 9,6 C 87 % 1018,7 hPa 0,0 mm 0,0 km/h (0 Bft) SW 225 0 min 7,9 C 0,0 km/h (0 Bft)
06.06.2016 02:00 9,9 C 9,5 C 88 % 1018,7 hPa 0,0 mm 0,0 km/h (0 Bft) S 180 0 min 8,0 C 0,0 km/h (0 Bft)
06.06.2016 02:05 9,8 C 9,4 C 88 % 1018,7 hPa 0,0 mm 0,0 km/h (0 Bft) S 180 0 min 7,9 C 0,0 km/h (0 Bft)
06.06.2016 02:10 9,6 C 9,1 C 88 % 1018,7 hPa 0,0 mm 0,0 km/h (0 Bft) S 180 0 min 7,7 C 0,0 km/h (0 Bft)
06.06.2016 02:15 9,6 C 9,1 C 88 % 1018,7 hPa 0,0 mm 0,0 km/h (0 Bft) S 180 0 min 7,7 C 0,0 km/h (0 Bft)
06.06.2016 02:20 9,5 C 9,2 C 88 % 1018,7 hPa 0,0 mm 0,0 km/h (0 Bft) S 180 0 min 7,6 C 0,0 km/h (0 Bft)
06.06.2016 02:25 9,5 C 9,3 C 88 % 1018,7 hPa 0,0 mm 0,0 km/h (0 Bft) S 180 0 min 7,6 C 0,0 km/h (0 Bft)
06.06.2016 02:30 9,4 C 9,1 C 88 % 1018,8 hPa 0,0 mm 0,0 km/h (0 Bft) S 180 0 min 7,5 C 0,0 km/h (0 Bft)
06.06.2016 02:35 9,3 C 9,0 C 88 % 1018,8 hPa 0,0 mm 0,0 km/h (0 Bft) S 180 0 min 7,4 C 0,0 km/h (0 Bft)
06.06.2016 02:40 9,4 C 9,1 C 88 % 1018,8 hPa 0,0 mm 0,0 km/h (0 Bft) S 180 0 min 7,5 C 0,0 km/h (0 Bft)
06.06.2016 02:45 9,2 C 9,0 C 88 % 1018,8 hPa 0,0 mm 0,0 km/h (0 Bft) S 180 0 min 7,3 C 0,0 km/h (0 Bft)
06.06.2016 02:50 9,1 C 8,8 C 88 % 1018,8 hPa 0,0 mm 0,0 km/h (0 Bft) S 180 0 min 7,2 C 0,0 km/h (0 Bft)
06.06.2016 02:55 9,0 C 8,7 C 88 % 1018,8 hPa 0,0 mm 0,0 km/h (0 Bft) S 180 0 min 7,1 C 0,0 km/h (0 Bft)
06.06.2016 03:00 8,9 C 8,6 C 88 % 1018,8 hPa 0,0 mm 0,0 km/h (0 Bft) S 180 0 min 7,0 C 0,0 km/h (0 Bft)
06.06.2016 03:05 8,8 C 8,6 C 88 % 1018,8 hPa 0,0 mm 0,0 km/h (0 Bft) S 180 0 min 6,9 C 0,0 km/h (0 Bft)
06.06.2016 03:10 8,6 C 8,3 C 88 % 1018,6 hPa 0,0 mm 0,0 km/h (0 Bft) S 180 0 min 6,7 C 0,0 km/h (0 Bft)
06.06.2016 03:15 8,6 C 8,2 C 88 % 1018,6 hPa 0,0 mm 0,0 km/h (0 Bft) S 180 0 min 6,7 C 0,0 km/h (0 Bft)
06.06.2016 03:20 8,6 C 8,3 C 88 % 1018,6 hPa 0,0 mm 0,0 km/h (0 Bft) S 180 0 min 6,7 C 0,0 km/h (0 Bft)
06.06.2016 03:25 8,5 C 8,1 C 88 % 1018,6 hPa 0,0 mm 0,0 km/h (0 Bft) S 180 0 min 6,6 C 0,0 km/h (0 Bft)
06.06.2016 03:30 8,5 C 8,2 C 88 % 1018,6 hPa 0,0 mm 0,0 km/h (0 Bft) S 180 0 min 6,6 C 0,0 km/h (0 Bft)
06.06.2016 03:35 8,5 C 8,1 C 88 % 1018,6 hPa 0,0 mm 0,0 km/h (0 Bft) S-SO 157 0 min 6,6 C 0,0 km/h (0 Bft)
06.06.2016 03:40 9,1 C 8,7 C 88 % 1018,6 hPa 0,0 mm 0,0 km/h (0 Bft) S-SO 157 0 min 7,2 C 0,0 km/h (0 Bft)
06.06.2016 03:45 9,0 C 8,8 C 88 % 1018,6 hPa 0,0 mm 0,0 km/h (0 Bft) S-SO 157 0 min 7,1 C 0,0 km/h (0 Bft)
06.06.2016 03:50 9,0 C 8,8 C 88 % 1018,6 hPa 0,0 mm 0,0 km/h (0 Bft) S-SW 202 0 min 7,1 C 0,0 km/h (0 Bft)
06.06.2016 03:55 9,0 C 8,8 C 88 % 1018,6 hPa 0,0 mm 0,0 km/h (0 Bft) S-SW 202 0 min 7,1 C 0,0 km/h (0 Bft)
06.06.2016 04:00 9,0 C 8,8 C 88 % 1018,6 hPa 0,0 mm 0,0 km/h (0 Bft) S-SW 202 0 min 7,1 C 0,0 km/h (0 Bft)
06.06.2016 04:05 9,0 C 8,6 C 88 % 1018,6 hPa 0,0 mm 0,0 km/h (0 Bft) S 180 0 min 7,1 C 0,0 km/h (0 Bft)
06.06.2016 04:10 8,9 C 8,6 C 88 % 1018,4 hPa 0,0 mm 0,0 km/h (0 Bft) S-SO 157 0 min 7,0 C 0,0 km/h (0 Bft)
06.06.2016 04:15 8,8 C 8,5 C 88 % 1018,4 hPa 0,0 mm 0,0 km/h (0 Bft) S-SO 157 0 min 6,9 C 0,0 km/h (0 Bft)
06.06.2016 04:20 8,7 C 8,3 C 88 % 1018,4 hPa 0,0 mm 0,0 km/h (0 Bft) S-SO 157 0 min 6,8 C 0,0 km/h (0 Bft)
06.06.2016 04:25 8,7 C 8,3 C 88 % 1018,4 hPa 0,0 mm 0,0 km/h (0 Bft) S-SW 202 0 min 6,8 C 0,0 km/h (0 Bft)
06.06.2016 04:30 8,9 C 8,4 C 88 % 1018,4 hPa 0,0 mm 0,0 km/h (0 Bft) S-SW 202 0 min 7,0 C 0,0 km/h (0 Bft)
06.06.2016 04:35 8,9 C 8,5 C 88 % 1018,4 hPa 0,0 mm 0,0 km/h (0 Bft) S 180 0 min 7,0 C 0,0 km/h (0 Bft)
06.06.2016 04:40 8,8 C 8,6 C 88 % 1018,4 hPa 0,0 mm 0,0 km/h (0 Bft) S-SW 202 0 min 6,9 C 0,0 km/h (0 Bft)
06.06.2016 04:43 8,8 C 8,7 C 88 % 1018,4 hPa 0,0 mm 0,0 km/h (0 Bft) S-SW 202 0 min 6,9 C 0,0 km/h (0 Bft)
06.06.2016 04:45 8,8 C 8,7 C 88 % 1018,4 hPa 0,0 mm 0,0 km/h (0 Bft) S-SW 202 0 min 6,9 C 0,0 km/h (0 Bft)
06.06.2016 04:50 8,8 C 8,6 C 88 % 1018,6 hPa 0,0 mm 0,0 km/h (0 Bft) W-SW 247 0 min 6,9 C 0,0 km/h (0 Bft)
06.06.2016 04:55 8,9 C 8,6 C 88 % 1018,6 hPa 0,0 mm 0,0 km/h (0 Bft) S 180 0 min 7,0 C 0,0 km/h (0 Bft)
06.06.2016 05:00 8,8 C 8,5 C 88 % 1018,6 hPa 0,0 mm 0,0 km/h (0 Bft) S 180 0 min 6,9 C 0,0 km/h (0 Bft)
06.06.2016 05:05 8,8 C 8,5 C 88 % 1018,6 hPa 0,0 mm 0,0 km/h (0 Bft) SW 225 0 min 6,9 C 0,0 km/h (0 Bft)
06.06.2016 05:10 8,6 C 8,3 C 88 % 1018,6 hPa 0,0 mm 0,0 km/h (0 Bft) S-SW 202 0 min 6,7 C 0,0 km/h (0 Bft)
06.06.2016 05:15 8,5 C 8,1 C 88 % 1018,6 hPa 0,0 mm 0,0 km/h (0 Bft) S-SW 202 0 min 6,6 C 0,0 km/h (0 Bft)
06.06.2016 05:20 8,6 C 8,3 C 88 % 1018,6 hPa 0,0 mm 0,0 km/h (0 Bft) SW 225 0 min 6,7 C 0,0 km/h (0 Bft)
06.06.2016 05:25 8,5 C 8,4 C 88 % 1018,6 hPa 0,0 mm 0,0 km/h (0 Bft) SW 225 0 min 6,6 C 0,0 km/h (0 Bft)
06.06.2016 05:30 8,5 C 8,2 C 88 % 1018,8 hPa 0,0 mm 0,0 km/h (0 Bft) N 360 0 min 6,6 C 0,0 km/h (0 Bft)
06.06.2016 05:35 8,6 C 8,2 C 88 % 1018,8 hPa 0,0 mm 0,0 km/h (0 Bft) S 180 0 min 6,7 C 0,0 km/h (0 Bft)
06.06.2016 05:40 8,6 C 8,3 C 88 % 1018,8 hPa 0,0 mm 0,0 km/h (0 Bft) S-SW 202 0 min 6,7 C 0,0 km/h (0 Bft)
06.06.2016 05:45 8,5 C 8,3 C 88 % 1018,8 hPa 0,0 mm 0,0 km/h (0 Bft) S 180 0 min 6,6 C 0,0 km/h (0 Bft)
06.06.2016 05:50 8,4 C 8,2 C 88 % 1018,2 hPa 0,0 mm 0,0 km/h (0 Bft) S-SW 202 0 min 6,5 C 0,0 km/h (0 Bft)
06.06.2016 05:55 8,5 C 8,3 C 88 % 1018,2 hPa 0,0 mm 0,0 km/h (0 Bft) S-SW 202 0 min 6,6 C 0,0 km/h (0 Bft)
06.06.2016 06:00 8,6 C 8,7 C 88 % 1018,2 hPa 0,0 mm 0,0 km/h (0 Bft) SO 135 0 min 6,7 C 0,0 km/h (0 Bft)
06.06.2016 06:05 8,8 C 9,2 C 88 % 1018,2 hPa 0,0 mm 0,0 km/h (0 Bft) SO 135 0 min 6,9 C 0,0 km/h (0 Bft)
06.06.2016 06:10 9,2 C 10,3 C 88 % 1018,2 hPa 0,0 mm 0,0 km/h (0 Bft) SW 225 0 min 7,3 C 0,0 km/h (0 Bft)
06.06.2016 06:15 9,4 C 10,7 C 88 % 1018,2 hPa 0,0 mm 0,0 km/h (0 Bft) W-SW 247 0 min 7,5 C 0,0 km/h (0 Bft)
06.06.2016 06:20 9,8 C 11,5 C 88 % 1018,2 hPa 0,0 mm 0,0 km/h (0 Bft) S 180 0 min 7,9 C 0,0 km/h (0 Bft)
06.06.2016 06:25 9,8 C 12,1 C 88 % 1018,2 hPa 0,0 mm 0,0 km/h (0 Bft) S 180 0 min 7,9 C 0,0 km/h (0 Bft)
06.06.2016 06:30 10,3 C 12,6 C 88 % 1017,9 hPa 0,0 mm 0,0 km/h (0 Bft) W-NW 292 5 min 8,4 C 0,0 km/h (0 Bft)
06.06.2016 06:35 10,5 C 13,0 C 88 % 1017,9 hPa 0,0 mm 0,0 km/h (0 Bft) S-SO 157 5 min 8,6 C 0,0 km/h (0 Bft)
06.06.2016 06:40 10,8 C 14,6 C 88 % 1017,9 hPa 0,0 mm 0,0 km/h (0 Bft) S-SW 202 5 min 8,9 C 0,0 km/h (0 Bft)
06.06.2016 06:45 11,1 C 15,5 C 88 % 1017,9 hPa 0,0 mm 0,0 km/h (0 Bft) W 270 5 min 9,2 C 0,0 km/h (0 Bft)
06.06.2016 06:50 11,3 C 16,6 C 88 % 1017,6 hPa 0,0 mm 0,0 km/h (0 Bft) N-NO 22 5 min 9,4 C 0,0 km/h (0 Bft)
06.06.2016 06:55 11,7 C 17,4 C 88 % 1017,6 hPa 0,0 mm 0,0 km/h (0 Bft) NW 315 5 min 9,8 C 0,0 km/h (0 Bft)
06.06.2016 07:00 11,8 C 18,2 C 88 % 1017,6 hPa 0,0 mm 0,0 km/h (0 Bft) SO 135 5 min 9,9 C 0,0 km/h (0 Bft)
06.06.2016 07:05 11,9 C 18,6 C 88 % 1017,6 hPa 0,0 mm 0,0 km/h (0 Bft) O-NO 67 5 min 10,0 C 0,0 km/h (0 Bft)
06.06.2016 07:10 12,2 C 18,6 C 88 % 1017,1 hPa 0,0 mm 0,0 km/h (0 Bft) O-NO 67 5 min 10,3 C 0,0 km/h (0 Bft)
06.06.2016 07:15 12,8 C 20,2 C 88 % 1017,1 hPa 0,0 mm 0,0 km/h (0 Bft) O-NO 67 5 min 10,9 C 0,0 km/h (0 Bft)
06.06.2016 07:20 13,0 C 20,2 C 87 % 1017,1 hPa 0,0 mm 0,0 km/h (0 Bft) O-NO 67 5 min 10,9 C 0,0 km/h (0 Bft)
06.06.2016 07:25 13,2 C 20,2 C 87 % 1017,1 hPa 0,0 mm 0,0 km/h (0 Bft) O-NO 67 5 min 11,1 C 0,0 km/h (0 Bft)
06.06.2016 07:30 14,3 C 22,1 C 87 % 1016,1 hPa 0,0 mm 0,0 km/h (0 Bft) N-NO 22 5 min 12,2 C 0,0 km/h (0 Bft)
06.06.2016 07:35 14,2 C 22,6 C 86 % 1016,1 hPa 0,0 mm 0,0 km/h (0 Bft) O-NO 67 5 min 11,9 C 0,0 km/h (0 Bft)
06.06.2016 07:40 14,6 C 23,1 C 86 % 1016,1 hPa 0,0 mm 0,0 km/h (0 Bft) NO 45 5 min 12,3 C 0,0 km/h (0 Bft)
06.06.2016 07:43 15,2 C 23,5 C 86 % 1016,1 hPa 0,0 mm 0,0 km/h (0 Bft) NO 45 3 min 12,9 C 0,0 km/h (0 Bft)
06.06.2016 07:44 15,2 C 23,5 C 86 % 1016,1 hPa 0,0 mm 0,0 km/h (0 Bft) NO 45 1 min 12,9 C 0,0 km/h (0 Bft)
06.06.2016 07:45 15,2 C 23,5 C 86 % 1016,1 hPa 0,0 mm 0,0 km/h (0 Bft) NO 45 1 min 12,9 C 0,0 km/h (0 Bft)
06.06.2016 07:50 14,8 C 22,3 C 86 % 1013,8 hPa 0,0 mm 0,0 km/h (0 Bft) NO 45 5 min 12,5 C 0,0 km/h (0 Bft)
06.06.2016 07:55 14,2 C 20,6 C 86 % 1013,8 hPa 0,0 mm 0,0 km/h (0 Bft) O-NO 67 5 min 11,9 C 0,0 km/h (0 Bft)
06.06.2016 08:00 14,4 C 18,9 C 85 % 1013,8 hPa 0,0 mm 0,0 km/h (0 Bft) N-NO 22 5 min 11,9 C 0,0 km/h (0 Bft)
06.06.2016 08:05 15,0 C 19,9 C 85 % 1013,8 hPa 0,0 mm 0,0 km/h (0 Bft) NO 45 5 min 12,5 C 0,0 km/h (0 Bft)
06.06.2016 08:10 15,2 C 20,5 C 84 % 1013,3 hPa 0,0 mm 0,0 km/h (0 Bft) N-NW 337 5 min 12,5 C 0,0 km/h (0 Bft)
06.06.2016 08:15 15,3 C 19,9 C 84 % 1013,3 hPa 0,0 mm 0,0 km/h (0 Bft) NO 45 5 min 12,6 C 0,0 km/h (0 Bft)
06.06.2016 08:20 15,6 C 20,7 C 83 % 1013,3 hPa 0,0 mm 0,0 km/h (0 Bft) N-NO 22 5 min 12,7 C 0,0 km/h (0 Bft)
06.06.2016 08:25 16,3 C 22,4 C 83 % 1013,3 hPa 0,0 mm 0,0 km/h (0 Bft) NW 315 5 min 13,4 C 0,0 km/h (0 Bft)
06.06.2016 08:30 16,5 C 23,6 C 82 % 1013,4 hPa 0,0 mm 0,0 km/h (0 Bft) NW 315 5 min 13,4 C 0,0 km/h (0 Bft)
06.06.2016 08:35 16,8 C 23,8 C 81 % 1013,4 hPa 0,0 mm 0,0 km/h (0 Bft) O-NO 67 5 min 13,5 C 0,0 km/h (0 Bft)
06.06.2016 08:40 17,0 C 24,9 C 80 % 1013,4 hPa 0,0 mm 0,3 km/h (0 Bft) NO 45 5 min 13,5 C 5,7 km/h (1 Bft)
06.06.2016 08:45 16,8 C 24,8 C 79 % 1013,4 hPa 0,0 mm 0,3 km/h (0 Bft) N-NO 22 5 min 13,1 C 0,0 km/h (0 Bft)
06.06.2016 08:50 17,0 C 23,6 C 78 % 1011,6 hPa 0,0 mm 0,9 km/h (0 Bft) N-NO 22 5 min 13,1 C 7,5 km/h (2 Bft)
06.06.2016 08:55 16,8 C 22,8 C 78 % 1011,6 hPa 0,0 mm 0,3 km/h (0 Bft) N-NO 22 5 min 12,9 C 0,0 km/h (0 Bft)
06.06.2016 09:00 16,5 C 21,6 C 78 % 1011,6 hPa 0,0 mm 0,0 km/h (0 Bft) O 90 5 min 12,6 C 0,0 km/h (0 Bft)
06.06.2016 09:05 16,2 C 20,2 C 78 % 1011,6 hPa 0,0 mm 0,3 km/h (0 Bft) NO 45 5 min 12,4 C 0,0 km/h (0 Bft)
06.06.2016 09:10 15,9 C 18,9 C 79 % 1012,6 hPa 0,0 mm 0,3 km/h (0 Bft) N-NO 22 5 min 12,3 C 0,0 km/h (0 Bft)
06.06.2016 09:15 16,0 C 18,9 C 79 % 1012,6 hPa 0,0 mm 0,0 km/h (0 Bft) O-NO 67 5 min 12,4 C 0,0 km/h (0 Bft)
06.06.2016 09:20 16,5 C 19,9 C 79 % 1012,6 hPa 0,0 mm 0,3 km/h (0 Bft) O-SO 112 5 min 12,8 C 0,0 km/h (0 Bft)
06.06.2016 09:25 16,5 C 20,1 C 78 % 1012,6 hPa 0,0 mm 3,0 km/h (1 Bft) N-NO 22 5 min 12,6 C 12,2 km/h (2 Bft)
06.06.2016 09:30 16,8 C 20,9 C 77 % 1012,5 hPa 0,0 mm 5,1 km/h (1 Bft) O-NO 67 5 min 12,7 C 15,2 km/h (3 Bft)
06.06.2016 09:35 17,5 C 22,4 C 77 % 1012,5 hPa 0,0 mm 3,3 km/h (1 Bft) O-NO 67 5 min 13,4 C 0,0 km/h (0 Bft)
06.06.2016 09:40 17,9 C 23,2 C 76 % 1012,5 hPa 0,0 mm 3,0 km/h (1 Bft) NO 45 5 min 13,6 C 19,1 km/h (3 Bft)
06.06.2016 09:45 17,9 C 23,2 C 74 % 1012,5 hPa 0,0 mm 6,0 km/h (2 Bft) O-NO 67 5 min 13,2 C 7,2 km/h (2 Bft)
06.06.2016 09:50 17,9 C 23,5 C 72 % 1009,5 hPa 0,0 mm 8,3 km/h (2 Bft) NO 45 5 min 12,8 C 11,3 km/h (2 Bft)
06.06.2016 09:55 18,5 C 23,8 C 73 % 1009,5 hPa 0,0 mm 6,6 km/h (2 Bft) S-SW 202 5 min 13,6 C 10,1 km/h (2 Bft)
06.06.2016 10:00 18,5 C 24,3 C 71 % 1009,5 hPa 0,0 mm 5,1 km/h (1 Bft) O-NO 67 5 min 13,1 C 11,9 km/h (2 Bft)
06.06.2016 10:05 18,5 C 23,9 C 71 % 1009,5 hPa 0,0 mm 7,7 km/h (2 Bft) NO 45 5 min 13,1 C 16,1 km/h (3 Bft)
06.06.2016 10:10 18,6 C 23,8 C 71 % 1006,8 hPa 0,0 mm 9,8 km/h (2 Bft) O-NO 67 5 min 13,2 C 22,1 km/h (4 Bft)
06.06.2016 10:15 18,5 C 24,0 C 70 % 1006,8 hPa 0,0 mm 8,0 km/h (2 Bft) O-NO 67 5 min 12,9 C 16,7 km/h (3 Bft)
06.06.2016 10:20 19,0 C 24,2 C 70 % 1006,8 hPa 0,0 mm 6,3 km/h (2 Bft) O-NO 67 5 min 13,4 C 14,6 km/h (3 Bft)
06.06.2016 10:25 18,6 C 24,2 C 69 % 1006,8 hPa 0,0 mm 6,6 km/h (2 Bft) O-NO 67 5 min 12,8 C 5,4 km/h (1 Bft)
06.06.2016 10:30 18,2 C 22,6 C 69 % 1006,1 hPa 0,0 mm 7,7 km/h (2 Bft) W 270 5 min 12,4 C 0,0 km/h (0 Bft)
06.06.2016 10:35 18,3 C 22,5 C 70 % 1006,1 hPa 0,0 mm 7,7 km/h (2 Bft) N-NO 22 5 min 12,7 C 13,1 km/h (3 Bft)
06.06.2016 10:40 18,4 C 22,2 C 70 % 1006,1 hPa 0,0 mm 6,9 km/h (2 Bft) NW 315 5 min 12,8 C 0,0 km/h (0 Bft)
06.06.2016 10:43 18,7 C 23,1 C 69 % 1006,1 hPa 0,0 mm 7,5 km/h (2 Bft) O-NO 67 3 min 12,9 C 14,9 km/h (3 Bft)
06.06.2016 10:45 18,7 C 23,1 C 69 % 1006,1 hPa 0,0 mm 7,5 km/h (2 Bft) O-NO 67 2 min 12,9 C 14,9 km/h (3 Bft)
06.06.2016 10:50 19,0 C 24,0 C 69 % 1005,7 hPa 0,0 mm 8,0 km/h (2 Bft) NO 45 5 min 13,2 C 15,8 km/h (3 Bft)
06.06.2016 10:55 19,0 C 24,3 C 68 % 1005,7 hPa 0,0 mm 8,3 km/h (2 Bft) NO 45 5 min 13,0 C 8,9 km/h (2 Bft)
06.06.2016 11:00 18,7 C 23,2 C 69 % 1005,7 hPa 0,0 mm 8,0 km/h (2 Bft) N 360 5 min 12,9 C 4,8 km/h (1 Bft)
06.06.2016 11:05 18,7 C 23,1 C 69 % 1005,7 hPa 0,0 mm 7,7 km/h (2 Bft) O-SO 112 5 min 12,9 C 8,6 km/h (2 Bft)
06.06.2016 11:10 19,1 C 23,5 C 68 % 1004,8 hPa 0,0 mm 8,3 km/h (2 Bft) NO 45 5 min 13,1 C 12,2 km/h (2 Bft)
06.06.2016 11:15 19,2 C 24,0 C 68 % 1004,8 hPa 0,0 mm 7,7 km/h (2 Bft) N-NW 337 5 min 13,1 C 9,2 km/h (2 Bft)
06.06.2016 11:20 18,9 C 22,8 C 68 % 1004,8 hPa 0,0 mm 8,3 km/h (2 Bft) NO 45 5 min 12,9 C 9,2 km/h (2 Bft)
06.06.2016 11:25 19,2 C 23,3 C 68 % 1004,8 hPa 0,0 mm 8,6 km/h (2 Bft) NO 45 5 min 13,1 C 6,9 km/h (2 Bft)
06.06.2016 11:30 18,8 C 22,7 C 67 % 1004,6 hPa 0,0 mm 9,2 km/h (2 Bft) NW 315 5 min 12,5 C 6,6 km/h (2 Bft)
06.06.2016 11:35 18,7 C 21,9 C 67 % 1004,6 hPa 0,0 mm 8,9 km/h (2 Bft) O 90 5 min 12,4 C 14,3 km/h (3 Bft)
06.06.2016 11:40 18,9 C 21,4 C 67 % 1004,6 hPa 0,0 mm 8,6 km/h (2 Bft) N-NO 22 0 min 12,6 C 13,7 km/h (3 Bft)
06.06.2016 11:45 19,5 C 22,6 C 66 % 1004,6 hPa 0,0 mm 9,8 km/h (2 Bft) N-NO 22 5 min 13,0 C 10,7 km/h (2 Bft)
06.06.2016 11:50 20,1 C 24,2 C 65 % 1005,5 hPa 0,0 mm 9,5 km/h (2 Bft) N-NW 337 5 min 13,3 C 15,8 km/h (3 Bft)
06.06.2016 11:55 20,2 C 24,9 C 63 % 1005,5 hPa 0,0 mm 8,6 km/h (2 Bft) O-NO 67 5 min 12,9 C 11,0 km/h (2 Bft)
06.06.2016 12:00 20,5 C 25,5 C 64 % 1005,5 hPa 0,0 mm 8,9 km/h (2 Bft) N-NO 22 5 min 13,5 C 5,4 km/h (1 Bft)
06.06.2016 12:05 20,4 C 25,6 C 64 % 1005,5 hPa 0,0 mm 8,9 km/h (2 Bft) N-NO 22 5 min 13,4 C 17,9 km/h (3 Bft)
06.06.2016 12:10 19,7 C 23,4 C 64 % 1004,0 hPa 0,0 mm 8,6 km/h (2 Bft) N-NO 22 5 min 12,7 C 11,9 km/h (2 Bft)
06.06.2016 12:15 19,6 C 22,7 C 65 % 1004,0 hPa 0,0 mm 7,7 km/h (2 Bft) N-NW 337 5 min 12,8 C 0,0 km/h (0 Bft)
06.06.2016 12:20 20,4 C 24,5 C 63 % 1004,0 hPa 0,0 mm 8,3 km/h (2 Bft) N-NO 22 5 min 13,1 C 23,5 km/h (4 Bft)
06.06.2016 12:25 20,8 C 25,2 C 64 % 1004,0 hPa 0,0 mm 7,2 km/h (2 Bft) O-NO 67 5 min 13,7 C 0,0 km/h (0 Bft)
06.06.2016 12:30 20,8 C 26,2 C 60 % 1004,1 hPa 0,0 mm 6,9 km/h (2 Bft) O-NO 67 5 min 12,7 C 11,3 km/h (2 Bft)
06.06.2016 12:35 20,9 C 26,0 C 61 % 1004,1 hPa 0,0 mm 6,9 km/h (2 Bft) O-NO 67 5 min 13,1 C 9,8 km/h (2 Bft)
06.06.2016 12:40 20,8 C 25,5 C 62 % 1004,1 hPa 0,0 mm 8,3 km/h (2 Bft) N-NO 22 5 min 13,2 C 11,0 km/h (2 Bft)
06.06.2016 12:45 20,4 C 24,1 C 62 % 1004,1 hPa 0,0 mm 8,6 km/h (2 Bft) N-NO 22 5 min 12,9 C 13,4 km/h (3 Bft)
06.06.2016 12:50 21,1 C 24,9 C 61 % 1004,4 hPa 0,0 mm 8,6 km/h (2 Bft) O-NO 67 5 min 13,3 C 18,8 km/h (3 Bft)
06.06.2016 12:55 21,4 C 25,6 C 61 % 1004,4 hPa 0,0 mm 8,6 km/h (2 Bft) NO 45 5 min 13,6 C 6,3 km/h (2 Bft)
06.06.2016 13:00 21,2 C 25,8 C 58 % 1004,4 hPa 0,0 mm 12,5 km/h (3 Bft) NO 45 5 min 12,6 C 19,4 km/h (3 Bft)
06.06.2016 13:05 20,8 C 24,6 C 59 % 1004,4 hPa 0,0 mm 12,5 km/h (3 Bft) N-NO 22 5 min 12,5 C 14,0 km/h (3 Bft)
06.06.2016 13:10 20,8 C 24,6 C 59 % 1004,2 hPa 0,0 mm 11,3 km/h (2 Bft) NO 45 5 min 12,5 C 9,8 km/h (2 Bft)
06.06.2016 13:15 21,3 C 24,9 C 59 % 1004,2 hPa 0,0 mm 10,1 km/h (2 Bft) N-NO 22 5 min 13,0 C 8,3 km/h (2 Bft)
06.06.2016 13:20 21,6 C 26,2 C 58 % 1004,2 hPa 0,0 mm 10,4 km/h (2 Bft) O-NO 67 5 min 13,0 C 11,3 km/h (2 Bft)
06.06.2016 13:25 21,7 C 26,6 C 59 % 1004,2 hPa 0,0 mm 10,7 km/h (2 Bft) NO 45 5 min 13,3 C 15,5 km/h (3 Bft)
06.06.2016 13:30 21,0 C 25,7 C 58 % 1004,7 hPa 0,0 mm 10,7 km/h (2 Bft) O-NO 67 5 min 12,4 C 10,4 km/h (2 Bft)
06.06.2016 13:35 21,5 C 25,7 C 59 % 1004,7 hPa 0,0 mm 10,4 km/h (2 Bft) N-NO 22 5 min 13,1 C 13,4 km/h (3 Bft)
06.06.2016 13:40 21,3 C 25,8 C 57 % 1004,7 hPa 0,0 mm 10,1 km/h (2 Bft) NO 45 5 min 12,4 C 9,5 km/h (2 Bft)
06.06.2016 13:43 21,2 C 24,8 C 58 % 1004,7 hPa 0,0 mm 10,4 km/h (2 Bft) NO 45 3 min 12,6 C 8,0 km/h (2 Bft)
06.06.2016 13:46 21,2 C 24,8 C 58 % 1004,7 hPa 0,0 mm 10,4 km/h (2 Bft) NO 45 3 min 12,6 C 8,0 km/h (2 Bft)
06.06.2016 13:50 22,0 C 26,3 C 57 % 1005,6 hPa 0,0 mm 10,4 km/h (2 Bft) O 90 4 min 13,1 C 25,0 km/h (4 Bft)
06.06.2016 13:55 21,5 C 25,9 C 57 % 1005,6 hPa 0,0 mm 10,1 km/h (2 Bft) NO 45 5 min 12,6 C 17,3 km/h (3 Bft)
06.06.2016 14:00 21,9 C 26,4 C 57 % 1005,6 hPa 0,0 mm 8,6 km/h (2 Bft) NO 45 5 min 13,0 C 14,9 km/h (3 Bft)
06.06.2016 14:05 22,1 C 26,8 C 57 % 1005,6 hPa 0,0 mm 8,3 km/h (2 Bft) N-NW 337 5 min 13,2 C 11,3 km/h (2 Bft)
06.06.2016 14:10 21,6 C 26,4 C 58 % 1006,6 hPa 0,0 mm 7,5 km/h (2 Bft) O-NO 67 5 min 13,0 C 5,4 km/h (1 Bft)
06.06.2016 14:15 21,6 C 26,1 C 57 % 1006,6 hPa 0,0 mm 6,6 km/h (2 Bft) NW 315 5 min 12,7 C 11,9 km/h (2 Bft)
06.06.2016 14:20 21,4 C 25,2 C 56 % 1006,6 hPa 0,0 mm 9,2 km/h (2 Bft) O-NO 67 5 min 12,3 C 15,5 km/h (3 Bft)
06.06.2016 14:25 20,9 C 24,0 C 57 % 1006,6 hPa 0,0 mm 9,2 km/h (2 Bft) O 90 5 min 12,1 C 8,6 km/h (2 Bft)
06.06.2016 14:30 20,6 C 22,9 C 57 % 1007,7 hPa 0,0 mm 7,7 km/h (2 Bft) N-NO 22 0 min 11,8 C 10,1 km/h (2 Bft)
06.06.2016 14:35 20,9 C 22,8 C 57 % 1007,7 hPa 0,0 mm 7,7 km/h (2 Bft) N-NO 22 0 min 12,1 C 11,3 km/h (2 Bft)
06.06.2016 14:40 22,0 C 25,0 C 57 % 1007,7 hPa 0,0 mm 7,2 km/h (2 Bft) N-NW 337 0 min 13,1 C 3,6 km/h (1 Bft)
06.06.2016 14:45 22,2 C 25,9 C 55 % 1007,7 hPa 0,0 mm 8,3 km/h (2 Bft) O-NO 67 5 min 12,7 C 21,8 km/h (4 Bft)
06.06.2016 14:50 22,1 C 26,4 C 55 % 1008,7 hPa 0,0 mm 11,3 km/h (2 Bft) NO 45 5 min 12,6 C 25,3 km/h (4 Bft)
06.06.2016 14:55 21,8 C 26,0 C 55 % 1008,7 hPa 0,0 mm 12,2 km/h (2 Bft) NO 45 5 min 12,4 C 9,8 km/h (2 Bft)
06.06.2016 15:00 21,5 C 24,4 C 56 % 1008,7 hPa 0,0 mm 11,6 km/h (2 Bft) O-NO 67 5 min 12,3 C 5,4 km/h (1 Bft)
06.06.2016 15:05 21,4 C 24,4 C 56 % 1008,7 hPa 0,0 mm 11,3 km/h (2 Bft) N-NO 22 5 min 12,3 C 15,5 km/h (3 Bft)
06.06.2016 15:10 21,3 C 23,7 C 55 % 1009,2 hPa 0,0 mm 11,3 km/h (2 Bft) N-NO 22 5 min 11,9 C 30,4 km/h (5 Bft)
06.06.2016 15:15 21,8 C 24,1 C 56 % 1009,2 hPa 0,0 mm 10,7 km/h (2 Bft) O-NO 67 0 min 12,6 C 13,1 km/h (3 Bft)
06.06.2016 15:20 22,3 C 26,3 C 55 % 1009,2 hPa 0,0 mm 9,5 km/h (2 Bft) O-SO 112 5 min 12,8 C 9,2 km/h (2 Bft)
06.06.2016 15:25 22,1 C 25,9 C 54 % 1009,2 hPa 0,0 mm 10,7 km/h (2 Bft) N-NW 337 5 min 12,3 C 11,9 km/h (2 Bft)
06.06.2016 15:30 22,4 C 26,1 C 55 % 1009,6 hPa 0,0 mm 12,8 km/h (3 Bft) N-NO 22 5 min 12,9 C 11,9 km/h (2 Bft)
06.06.2016 15:35 22,6 C 26,8 C 55 % 1009,6 hPa 0,0 mm 12,2 km/h (2 Bft) N-NO 22 5 min 13,1 C 14,6 km/h (3 Bft)
06.06.2016 15:40 22,7 C 27,4 C 54 % 1009,6 hPa 0,0 mm 8,9 km/h (2 Bft) O-SO 112 5 min 12,9 C 5,4 km/h (1 Bft)
06.06.2016 15:45 22,9 C 28,0 C 53 % 1009,6 hPa 0,0 mm 8,9 km/h (2 Bft) NW 315 5 min 12,8 C 15,5 km/h (3 Bft)
06.06.2016 15:50 23,0 C 28,4 C 52 % 1009,8 hPa 0,0 mm 9,5 km/h (2 Bft) O-NO 67 5 min 12,6 C 16,1 km/h (3 Bft)
06.06.2016 15:55 22,6 C 28,1 C 53 % 1009,8 hPa 0,0 mm 11,9 km/h (2 Bft) N-NO 22 5 min 12,5 C 19,7 km/h (3 Bft)
06.06.2016 16:00 22,1 C 26,0 C 54 % 1009,8 hPa 0,0 mm 10,4 km/h (2 Bft) NO 45 5 min 12,3 C 14,9 km/h (3 Bft)
06.06.2016 16:05 22,1 C 25,7 C 55 % 1009,8 hPa 0,0 mm 8,9 km/h (2 Bft) O-SO 112 5 min 12,6 C 8,9 km/h (2 Bft)
06.06.2016 16:10 22,4 C 27,1 C 54 % 1009,7 hPa 0,0 mm 9,5 km/h (2 Bft) NO 45 5 min 12,6 C 14,0 km/h (3 Bft)
06.06.2016 16:15 22,3 C 27,5 C 53 % 1009,7 hPa 0,0 mm 11,0 km/h (2 Bft) O-NO 67 5 min 12,2 C 17,0 km/h (3 Bft)
06.06.2016 16:20 22,2 C 27,3 C 55 % 1009,7 hPa 0,0 mm 11,9 km/h (2 Bft) NO 45 5 min 12,7 C 11,6 km/h (2 Bft)
06.06.2016 16:25 22,1 C 26,9 C 54 % 1009,7 hPa 0,0 mm 11,9 km/h (2 Bft) N-NO 22 5 min 12,3 C 16,4 km/h (3 Bft)
06.06.2016 16:30 21,8 C 25,5 C 55 % 1019,9 hPa 0,0 mm 10,4 km/h (2 Bft) S-SW 202 5 min 12,4 C 0,0 km/h (0 Bft)
06.06.2016 16:35 21,7 C 24,9 C 54 % 1019,9 hPa 0,0 mm 8,9 km/h (2 Bft) N-NW 337 5 min 12,0 C 3,3 km/h (1 Bft)
06.06.2016 16:40 21,9 C 26,3 C 55 % 1019,9 hPa 0,0 mm 7,5 km/h (2 Bft) N-NO 22 5 min 12,4 C 6,0 km/h (2 Bft)
06.06.2016 16:45 22,2 C 27,1 C 54 % 1019,9 hPa 0,0 mm 7,7 km/h (2 Bft) NO 45 5 min 12,4 C 11,6 km/h (2 Bft)
06.06.2016 16:47 22,2 C 27,1 C 54 % 1019,9 hPa 0,0 mm 7,7 km/h (2 Bft) NO 45 2 min 12,4 C 11,6 km/h (2 Bft)
06.06.2016 16:50 22,1 C 26,3 C 54 % 1019,9 hPa 0,0 mm 8,6 km/h (2 Bft) N-NO 22 3 min 12,3 C 10,7 km/h (2 Bft)
06.06.2016 16:55 22,1 C 25,6 C 53 % 1019,9 hPa 0,0 mm 9,5 km/h (2 Bft) SO 135 5 min 12,1 C 9,2 km/h (2 Bft)
06.06.2016 17:00 21,8 C 24,5 C 54 % 1019,9 hPa 0,0 mm 9,2 km/h (2 Bft) NW 315 5 min 12,1 C 7,2 km/h (2 Bft)
06.06.2016 17:05 21,7 C 23,8 C 54 % 1019,9 hPa 0,0 mm 9,2 km/h (2 Bft) N-NO 22 5 min 12,0 C 8,0 km/h (2 Bft)
06.06.2016 17:10 21,5 C 23,2 C 55 % 1019,8 hPa 0,0 mm 6,0 km/h (2 Bft) O-NO 67 0 min 12,1 C 6,0 km/h (2 Bft)
06.06.2016 17:15 21,6 C 23,3 C 55 % 1019,8 hPa 0,0 mm 3,9 km/h (1 Bft) W-SW 247 0 min 12,2 C 4,2 km/h (1 Bft)
06.06.2016 17:20 21,9 C 23,9 C 54 % 1019,8 hPa 0,0 mm 3,0 km/h (1 Bft) N 360 0 min 12,2 C 8,9 km/h (2 Bft)
06.06.2016 17:25 22,0 C 24,0 C 53 % 1019,8 hPa 0,0 mm 5,4 km/h (1 Bft) NO 45 0 min 12,0 C 4,8 km/h (1 Bft)
06.06.2016 17:30 21,9 C 23,9 C 53 % 1019,8 hPa 0,0 mm 10,1 km/h (2 Bft) NO 45 0 min 11,9 C 15,5 km/h (3 Bft)
06.06.2016 17:35 21,9 C 23,8 C 53 % 1019,8 hPa 0,0 mm 9,8 km/h (2 Bft) O-NO 67 0 min 11,9 C 15,8 km/h (3 Bft)
06.06.2016 17:40 22,0 C 23,7 C 53 % 1019,8 hPa 0,0 mm 8,9 km/h (2 Bft) O 90 0 min 12,0 C 7,7 km/h (2 Bft)
06.06.2016 17:45 21,8 C 23,5 C 53 % 1019,8 hPa 0,0 mm 9,2 km/h (2 Bft) N-NW 337 0 min 11,8 C 6,6 km/h (2 Bft)
06.06.2016 17:50 21,6 C 23,0 C 53 % 1019,6 hPa 0,0 mm 6,0 km/h (2 Bft) O-SO 112 0 min 11,6 C 4,5 km/h (1 Bft)
06.06.2016 17:55 21,6 C 23,0 C 55 % 1019,6 hPa 0,0 mm 2,7 km/h (1 Bft) S-SO 157 0 min 12,2 C 0,0 km/h (0 Bft)
06.06.2016 18:00 21,4 C 22,8 C 56 % 1019,6 hPa 0,0 mm 3,3 km/h (1 Bft) O-NO 67 0 min 12,3 C 0,0 km/h (0 Bft)
06.06.2016 18:05 21,2 C 22,5 C 56 % 1019,6 hPa 0,0 mm 3,9 km/h (1 Bft) N-NO 22 0 min 12,1 C 0,0 km/h (0 Bft)
06.06.2016 18:10 20,8 C 22,0 C 57 % 1019,8 hPa 0,0 mm 0,9 km/h (0 Bft) N-NO 22 0 min 12,0 C 0,0 km/h (0 Bft)
06.06.2016 18:15 20,6 C 21,7 C 58 % 1019,8 hPa 0,0 mm 0,0 km/h (0 Bft) NO 45 0 min 12,0 C 0,0 km/h (0 Bft)
06.06.2016 18:20 20,5 C 21,4 C 59 % 1019,8 hPa 0,0 mm 0,0 km/h (0 Bft) W 270 0 min 12,2 C 0,0 km/h (0 Bft)
06.06.2016 18:25 20,3 C 21,2 C 60 % 1019,8 hPa 0,0 mm 0,0 km/h (0 Bft) NW 315 0 min 12,3 C 0,0 km/h (0 Bft)
06.06.2016 18:30 19,9 C 21,0 C 62 % 1019,7 hPa 0,0 mm 0,0 km/h (0 Bft) W-NW 292 0 min 12,4 C 0,0 km/h (0 Bft)
06.06.2016 18:35 19,8 C 20,8 C 63 % 1019,7 hPa 0,0 mm 0,0 km/h (0 Bft) N-NW 337 0 min 12,5 C 0,0 km/h (0 Bft)
06.06.2016 18:40 19,4 C 20,8 C 64 % 1019,7 hPa 0,0 mm 0,0 km/h (0 Bft) SO 135 0 min 12,4 C 0,0 km/h (0 Bft)
06.06.2016 18:45 19,3 C 20,7 C 65 % 1019,7 hPa 0,0 mm 0,0 km/h (0 Bft) NO 45 0 min 12,6 C 0,0 km/h (0 Bft)
06.06.2016 18:50 19,2 C 21,2 C 65 % 1019,9 hPa 0,0 mm 0,0 km/h (0 Bft) SW 225 0 min 12,5 C 0,0 km/h (0 Bft)
06.06.2016 18:55 19,2 C 21,7 C 65 % 1019,9 hPa 0,0 mm 0,0 km/h (0 Bft) S-SO 157 0 min 12,5 C 0,0 km/h (0 Bft)
06.06.2016 19:00 19,2 C 23,1 C 66 % 1019,9 hPa 0,0 mm 0,0 km/h (0 Bft) N-NO 22 5 min 12,7 C 0,0 km/h (0 Bft)
06.06.2016 19:05 19,3 C 24,2 C 66 % 1019,9 hPa 0,0 mm 0,0 km/h (0 Bft) N-NO 22 5 min 12,8 C 0,0 km/h (0 Bft)
06.06.2016 19:10 19,6 C 25,7 C 65 % 1019,9 hPa 0,0 mm 0,0 km/h (0 Bft) W 270 5 min 12,8 C 0,0 km/h (0 Bft)
06.06.2016 19:15 19,7 C 26,3 C 65 % 1019,9 hPa 0,0 mm 0,0 km/h (0 Bft) SO 135 5 min 12,9 C 0,0 km/h (0 Bft)
06.06.2016 19:20 19,9 C 26,9 C 65 % 1019,9 hPa 0,0 mm 0,0 km/h (0 Bft) W-NW 292 5 min 13,1 C 0,0 km/h (0 Bft)
06.06.2016 19:25 20,0 C 27,2 C 63 % 1019,9 hPa 0,0 mm 0,0 km/h (0 Bft) S 180 5 min 12,7 C 0,0 km/h (0 Bft)
06.06.2016 19:30 20,2 C 27,1 C 62 % 1020,1 hPa 0,0 mm 0,0 km/h (0 Bft) O-NO 67 5 min 12,7 C 0,0 km/h (0 Bft)
06.06.2016 19:35 20,1 C 26,3 C 62 % 1020,1 hPa 0,0 mm 0,0 km/h (0 Bft) S-SW 202 5 min 12,6 C 0,0 km/h (0 Bft)
06.06.2016 19:40 20,3 C 26,0 C 62 % 1020,1 hPa 0,0 mm 0,0 km/h (0 Bft) NO 45 5 min 12,8 C 0,0 km/h (0 Bft)
06.06.2016 19:45 20,4 C 26,0 C 62 % 1020,1 hPa 0,0 mm 0,0 km/h (0 Bft) NO 45 5 min 12,9 C 0,0 km/h (0 Bft)
06.06.2016 19:48 20,4 C 26,0 C 62 % 1020,1 hPa 0,0 mm 0,0 km/h (0 Bft) NO 45 3 min 12,9 C 0,0 km/h (0 Bft)
06.06.2016 19:50 20,3 C 25,9 C 62 % 1020,1 hPa 0,0 mm 0,0 km/h (0 Bft) S-SO 157 2 min 12,8 C 0,0 km/h (0 Bft)
06.06.2016 19:55 20,4 C 25,8 C 63 % 1020,1 hPa 0,0 mm 0,0 km/h (0 Bft) SW 225 5 min 13,1 C 0,0 km/h (0 Bft)
06.06.2016 20:00 20,4 C 25,1 C 63 % 1020,1 hPa 0,0 mm 0,0 km/h (0 Bft) SW 225 5 min 13,1 C 0,0 km/h (0 Bft)
06.06.2016 20:05 20,1 C 23,6 C 64 % 1020,1 hPa 0,0 mm 0,3 km/h (0 Bft) S 180 5 min 13,1 C 0,0 km/h (0 Bft)
06.06.2016 20:10 19,3 C 21,6 C 66 % 1020,2 hPa 0,0 mm 0,3 km/h (0 Bft) S 180 5 min 12,8 C 0,0 km/h (0 Bft)
06.06.2016 20:15 18,9 C 20,7 C 67 % 1020,2 hPa 0,0 mm 0,0 km/h (0 Bft) O-SO 112 0 min 12,6 C 0,0 km/h (0 Bft)
06.06.2016 20:20 18,7 C 20,0 C 69 % 1020,2 hPa 0,0 mm 0,0 km/h (0 Bft) S 180 0 min 12,9 C 0,0 km/h (0 Bft)
06.06.2016 20:25 18,6 C 20,0 C 69 % 1020,2 hPa 0,0 mm 0,0 km/h (0 Bft) S-SO 157 0 min 12,8 C 0,0 km/h (0 Bft)
06.06.2016 20:30 18,5 C 20,1 C 69 % 1020,3 hPa 0,0 mm 0,0 km/h (0 Bft) O-SO 112 0 min 12,7 C 0,0 km/h (0 Bft)
06.06.2016 20:35 18,4 C 20,2 C 68 % 1020,3 hPa 0,0 mm 0,0 km/h (0 Bft) O-NO 67 0 min 12,4 C 0,0 km/h (0 Bft)
06.06.2016 20:40 18,1 C 20,2 C 69 % 1020,3 hPa 0,0 mm 0,0 km/h (0 Bft) S-SO 157 0 min 12,3 C 0,0 km/h (0 Bft)
06.06.2016 20:45 17,9 C 20,2 C 69 % 1020,3 hPa 0,0 mm 0,0 km/h (0 Bft) S-SO 157 0 min 12,1 C 0,0 km/h (0 Bft)
06.06.2016 20:50 17,6 C 19,8 C 70 % 1020,6 hPa 0,0 mm 0,0 km/h (0 Bft) SO 135 0 min 12,1 C 0,0 km/h (0 Bft)
06.06.2016 20:55 17,3 C 19,4 C 71 % 1020,6 hPa 0,0 mm 0,0 km/h (0 Bft) S-SO 157 0 min 12,0 C 0,0 km/h (0 Bft)
06.06.2016 21:00 17,1 C 18,4 C 73 % 1020,6 hPa 0,0 mm 0,0 km/h (0 Bft) S-SO 157 0 min 12,2 C 0,0 km/h (0 Bft)
06.06.2016 21:05 17,1 C 17,9 C 74 % 1020,6 hPa 0,0 mm 0,0 km/h (0 Bft) S-SO 157 0 min 12,4 C 0,0 km/h (0 Bft)
06.06.2016 21:10 16,7 C 17,0 C 75 % 1020,6 hPa 0,0 mm 0,0 km/h (0 Bft) S 180 0 min 12,2 C 0,0 km/h (0 Bft)
06.06.2016 21:15 16,5 C 16,6 C 76 % 1020,6 hPa 0,0 mm 0,0 km/h (0 Bft) S-SO 157 0 min 12,3 C 0,0 km/h (0 Bft)
06.06.2016 21:20 16,4 C 16,1 C 76 % 1020,6 hPa 0,0 mm 0,0 km/h (0 Bft) O-SO 112 0 min 12,2 C 0,0 km/h (0 Bft)
06.06.2016 21:25 16,1 C 15,8 C 76 % 1020,6 hPa 0,0 mm 0,0 km/h (0 Bft) S 180 0 min 11,9 C 0,0 km/h (0 Bft)
06.06.2016 21:30 15,7 C 15,5 C 77 % 1020,5 hPa 0,0 mm 0,0 km/h (0 Bft) S-SO 157 0 min 11,7 C 0,0 km/h (0 Bft)
06.06.2016 21:35 15,5 C 15,3 C 78 % 1020,5 hPa 0,0 mm 0,0 km/h (0 Bft) S 180 0 min 11,7 C 0,0 km/h (0 Bft)
06.06.2016 21:40 15,3 C 15,0 C 78 % 1020,5 hPa 0,0 mm 0,0 km/h (0 Bft) S 180 0 min 11,5 C 0,0 km/h (0 Bft)
06.06.2016 21:45 15,1 C 14,8 C 78 % 1020,5 hPa 0,0 mm 0,0 km/h (0 Bft) S-SO 157 0 min 11,3 C 0,0 km/h (0 Bft)
06.06.2016 21:50 15,0 C 14,6 C 78 % 1020,8 hPa 0,0 mm 0,0 km/h (0 Bft) S 180 0 min 11,2 C 0,0 km/h (0 Bft)
06.06.2016 21:55 15,0 C 14,6 C 79 % 1020,8 hPa 0,0 mm 0,0 km/h (0 Bft) SO 135 0 min 11,4 C 0,0 km/h (0 Bft)
06.06.2016 22:00 14,9 C 14,4 C 79 % 1020,8 hPa 0,0 mm 0,0 km/h (0 Bft) S-SO 157 0 min 11,3 C 0,0 km/h (0 Bft)
06.06.2016 22:05 14,7 C 14,3 C 79 % 1020,8 hPa 0,0 mm 0,0 km/h (0 Bft) S-SO 157 0 min 11,1 C 0,0 km/h (0 Bft)
06.06.2016 22:10 14,5 C 14,2 C 79 % 1020,6 hPa 0,0 mm 0,0 km/h (0 Bft) S-SO 157 0 min 10,9 C 0,0 km/h (0 Bft)
06.06.2016 22:15 14,4 C 14,1 C 79 % 1020,6 hPa 0,0 mm 0,0 km/h (0 Bft) S-SO 157 0 min 10,8 C 0,0 km/h (0 Bft)
06.06.2016 22:20 14,4 C 14,1 C 79 % 1020,6 hPa 0,0 mm 0,0 km/h (0 Bft) S-SO 157 0 min 10,8 C 0,0 km/h (0 Bft)
06.06.2016 22:25 14,4 C 14,1 C 79 % 1020,6 hPa 0,0 mm 0,0 km/h (0 Bft) S-SO 157 0 min 10,8 C 0,0 km/h (0 Bft)
06.06.2016 22:30 14,1 C 14,0 C 79 % 1020,7 hPa 0,0 mm 0,0 km/h (0 Bft) S-SO 157 0 min 10,5 C 0,0 km/h (0 Bft)
06.06.2016 22:35 14,0 C 14,0 C 80 % 1020,7 hPa 0,0 mm 0,0 km/h (0 Bft) S-SO 157 0 min 10,6 C 0,0 km/h (0 Bft)
06.06.2016 22:40 14,0 C 14,0 C 80 % 1020,7 hPa 0,0 mm 0,0 km/h (0 Bft) S-SO 157 0 min 10,6 C 0,0 km/h (0 Bft)
06.06.2016 22:45 13,8 C 14,0 C 80 % 1020,7 hPa 0,0 mm 0,0 km/h (0 Bft) S-SO 157 0 min 10,4 C 0,0 km/h (0 Bft)
06.06.2016 22:48 13,6 C 14,0 C 80 % 1020,4 hPa 0,0 mm 0,0 km/h (0 Bft) S-SO 157 0 min 10,2 C 0,0 km/h (0 Bft)
06.06.2016 22:49 13,6 C 14,0 C 80 % 1020,4 hPa 0,0 mm 0,0 km/h (0 Bft) S-SO 157 0 min 10,2 C 0,0 km/h (0 Bft)
06.06.2016 22:50 13,6 C 14,0 C 80 % 1020,4 hPa 0,0 mm 0,0 km/h (0 Bft) S-SO 157 0 min 10,2 C 0,0 km/h (0 Bft)
06.06.2016 22:55 13,5 C 14,0 C 80 % 1020,4 hPa 0,0 mm 0,0 km/h (0 Bft) S-SO 157 0 min 10,1 C 0,0 km/h (0 Bft)
06.06.2016 23:00 13,4 C 14,0 C 81 % 1020,4 hPa 0,0 mm 0,0 km/h (0 Bft) S-SO 157 0 min 10,2 C 0,0 km/h (0 Bft)
06.06.2016 23:05 13,4 C 14,0 C 81 % 1020,4 hPa 0,0 mm 0,0 km/h (0 Bft) S-SO 157 0 min 10,2 C 0,0 km/h (0 Bft)
06.06.2016 23:10 13,3 C 14,0 C 81 % 1020,6 hPa 0,0 mm 0,0 km/h (0 Bft) S-SO 157 0 min 10,1 C 0,0 km/h (0 Bft)
06.06.2016 23:15 13,1 C 14,0 C 81 % 1020,6 hPa 0,0 mm 0,0 km/h (0 Bft) S-SO 157 0 min 9,9 C 0,0 km/h (0 Bft)
06.06.2016 23:20 12,9 C 14,0 C 82 % 1020,6 hPa 0,0 mm 0,0 km/h (0 Bft) S-SO 157 0 min 9,9 C 0,0 km/h (0 Bft)
06.06.2016 23:25 12,9 C 14,0 C 82 % 1020,6 hPa 0,0 mm 0,0 km/h (0 Bft) S-SO 157 0 min 9,9 C 0,0 km/h (0 Bft)
06.06.2016 23:30 12,8 C 14,0 C 82 % 1020,3 hPa 0,0 mm 0,0 km/h (0 Bft) S-SO 157 0 min 9,8 C 0,0 km/h (0 Bft)
06.06.2016 23:35 12,7 C 14,0 C 83 % 1020,3 hPa 0,0 mm 0,0 km/h (0 Bft) S-SO 157 0 min 9,9 C 0,0 km/h (0 Bft)
06.06.2016 23:40 12,5 C 14,0 C 83 % 1020,3 hPa 0,0 mm 0,0 km/h (0 Bft) S-SO 157 0 min 9,7 C 0,0 km/h (0 Bft)
06.06.2016 23:45 12,3 C 14,0 C 83 % 1020,3 hPa 0,0 mm 0,0 km/h (0 Bft) S-SO 157 0 min 9,5 C 0,0 km/h (0 Bft)
06.06.2016 23:50 12,4 C 14,0 C 83 % 1020,8 hPa 0,0 mm 0,0 km/h (0 Bft) S-SO 157 0 min 9,6 C 0,0 km/h (0 Bft)
06.06.2016 23:55 12,5 C 14,0 C 83 % 1020,8 hPa 0,0 mm 0,0 km/h (0 Bft) S-SO 157 0 min 9,7 C 0,0 km/h (0 Bft)
_ Min-Zeit 05:50 05:15 15:50 12:25 - 23:55 - - - 05:50 23:55
Minimum _ 8,4 C 8,1 C 52 % 1004,0 hPa - 0,0 km/h (0 Bft) - - - 6,5 C 0,0 km/h (0 Bft)
_ Max-Zeit 15:50 15:50 07:15 23:55 23:55 15:30 - - 20:10 12:25 15:10
Maximum _ 23,0 C 28,4 C 88 % 1020,8 hPa 0,0 mm 12,8 km/h
N-NO (3 Bft)
- - 5 min 13,7 C 30,4 km/h
N-NO (5 Bft)
Durchschnitt _ 15,9 C 18,5 C 74 % 1015,2 hPa #0,0 mm 3,1 km/h (1 Bft) O-NO - #11:30 h 10,9 C 4,1 km/h (1 Bft)